This demonstration page uses our WeatherBlox Daily Observations layout. Learn more.

Left ArrowRight Arrow

Hourly Observations for November 25, 2018

Temp ( °F °C ) Dew Point ( °F °C ) Humidity (%) Winds ( mph kmh ) Pressure ( in mb ) Visibility ( mi km ) Precip ( " mm )
12:53 am 00:53 Clear 19 -7.2 18 -7.8 96 96 NNE 3 6 30.21 1023 9 14 N/A
1:53 am 01:53 Clear 19 -7.2 17 -8.3 92 92 ENE 3 6 30.22 1023 10 16 N/A
2:53 am 02:53 Clear 17 -8.3 15 -9.4 92 92 ENE 3 6 30.22 1023 10 16 N/A
3:17 am 03:17 Mostly Clear 18 -7.8 16 -8.9 92 92 NE 5 7 30.30 1026 7 11 N/A
3:53 am 03:53 Clear 15 -9.4 13 -10.6 91 91 N N/A 30.22 1023 10 16 N/A
4:34 am 04:34 Partly Cloudy 14 -10 12 -11.1 92 92 W 5 7 30.33 1027 10 16 N/A
4:38 am 04:38 Mostly Cloudy with Mist and Fog 14 -10 12 -11 92 92 N N/A 30.33 1027 1 2 N/A
4:43 am 04:43 Mostly Cloudy with Freezing Fog 14 -10 13 -10.6 95 95 N N/A 30.33 1027 0 0 N/A
4:53 am 04:53 Mostly Cloudy with Freezing Fog 14 -10 14 -10 100 100 SSW 3 6 30.22 1023 0 0 N/A
5:03 am 05:03 Mostly Cloudy with Mist and Fog 14 -10 12 -11.1 92 92 WSW 5 7 30.33 1027 1 1 N/A
5:06 am 05:06 Mostly Cloudy with Mist and Fog 12 -11 10 -12 92 92 WSW 3 6 30.33 1027 2 2 N/A
5:10 am 05:10 Partly Cloudy 12 -11 10 -12 92 92 WSW 5 7 30.33 1027 9 14 N/A
5:53 am 05:53 Clear 17 -8.3 14 -10 88 88 SW 10 17 30.22 1023 10 16 N/A
6:53 am 06:53 Clear 19 -7.2 16 -8.9 88 88 SW 14 22 30.22 1024 10 16 N/A
7:53 am 07:53 Sunny 18 -7.8 16 -8.9 92 92 WSW 10 17 30.24 1024 10 16 N/A
8:53 am 08:53 Mostly Sunny 19 -7.2 17 -8.3 92 92 WSW 12 19 30.25 1025 10 16 N/A
9:53 am 09:53 Sunny 24 -4.4 22 -5.6 91 91 WSW 8 13 30.25 1024 10 16 N/A
10:53 am 10:53 Sunny 31 -0.6 24 -4.4 76 76 WSW 13 20 30.25 1024 10 16 N/A
11:53 am 11:53 Sunny 34 1.1 23 -5 64 64 SW 14 22 30.24 1024 10 16 N/A
12:53 pm 12:53 Sunny 36 2.2 22 -5.6 57 57 WSW 12 19 30.24 1024 10 16 N/A
1:53 pm 13:53 Sunny 38 3.3 22 -5.6 52 52 W 9 15 30.24 1024 10 16 N/A
2:53 pm 14:53 Sunny 37 2.8 23 -5 57 57 WSW 9 15 30.25 1024 10 16 N/A
3:53 pm 15:53 Sunny 36 2.2 24 -4.4 62 62 SW 6 9 30.26 1025 10 16 N/A
4:53 pm 16:53 Clear 28 -2.2 21 -6.1 75 75 S 6 9 30.27 1025 10 16 N/A
5:53 pm 17:53 Clear 24 -4.4 21 -6.1 88 88 ENE 7 11 30.29 1026 10 16 N/A
6:53 pm 18:53 Clear 22 -5.6 20 -6.7 92 92 E 8 13 30.30 1026 10 16 N/A
7:53 pm 19:53 Clear 21 -6.1 19 -7.2 92 92 E 8 13 30.30 1026 10 16 N/A
8:53 pm 20:53 Clear 20 -6.7 18 -7.8 92 92 ENE 8 13 30.29 1026 10 16 N/A
9:53 pm 21:53 Clear 18 -7.8 17 -8.3 96 96 E 5 7 30.29 1026 10 16 N/A
10:28 pm 22:28 Partly Cloudy with Mist and Fog 18 -8 16 -9 93 93 ENE 5 7 30.36 1028 6 10 N/A
10:37 pm 22:37 Mostly Cloudy with Mist and Fog 17 -8.3 16 -8.9 95 95 E 5 7 30.36 1028 3 5 N/A
10:49 pm 22:49 Cloudy with Mist and Fog 17 -8.3 16 -8.9 95 95 E 7 11 30.30 1026 2 3 N/A
11:05 pm 23:05 Cloudy with Mist and Fog 17 -8.3 16 -8.9 95 95 E 6 9 30.36 1028 1 2 N/A
11:18 pm 23:18 Mostly Cloudy with Freezing Fog 18 -8 18 -8 100 100 ENE 7 11 30.36 1028 1 1 N/A
11:53 pm 23:53 Mostly Cloudy with Freezing Fog 19 -7.2 18 -7.8 96 96 E 9 15 30.29 1026 1 1 N/A

Powered by AerisWeather